TimeCAT,TemperatureF,Dew PointF,Humidity,Sea Level PressureIn,VisibilityMPH,Wind Direction,Wind SpeedMPH,Gust SpeedMPH,PrecipitationIn,Events,Conditions,WindDirDegrees,DateUTC
12:00 AM,77.0,60.8,57,29.95,-9999.0,East,10.4,-,N/A,,Clear,100,2012-12-09 22:00:00
1:00 AM,77.0,60.8,57,29.92,-9999.0,ESE,10.4,-,N/A,,Clear,110,2012-12-09 23:00:00
4:00 AM,73.4,60.8,65,29.92,-9999.0,SE,9.2,-,N/A,,Clear,130,2012-12-10 02:00:00
5:00 AM,75.2,60.8,61,29.92,-9999.0,East,9.2,-,N/A,,Clear,100,2012-12-10 03:00:00
6:00 AM,73.4,62.6,69,29.95,-9999.0,Variable,2.3,-,N/A,,Clear,0,2012-12-10 04:00:00
7:00 AM,73.4,62.6,69,29.98,-9999.0,SSE,8.1,-,N/A,,Clear,150,2012-12-10 05:00:00
8:00 AM,77.0,62.6,61,29.98,-9999.0,SE,11.5,-,N/A,,Clear,130,2012-12-10 06:00:00
9:00 AM,77.0,64.4,65,29.98,6.2,South,18.4,-,N/A,,Scattered Clouds,180,2012-12-10 07:00:00
10:00 AM,75.2,62.6,65,29.98,6.2,South,16.1,-,N/A,,Scattered Clouds,190,2012-12-10 08:00:00
11:00 AM,75.2,62.6,65,29.98,6.2,SSE,17.3,-,N/A,,Scattered Clouds,150,2012-12-10 09:00:00
12:00 PM,69.8,66.2,88,30.01,6.2,South,11.5,-,N/A,Rain,Light Rain,180,2012-12-10 10:00:00
1:00 PM,69.8,66.2,88,29.98,6.2,South,10.4,-,N/A,,Mostly Cloudy,180,2012-12-10 11:00:00
2:00 PM,69.8,66.2,88,29.98,6.2,SSE,9.2,-,N/A,Rain,Light Rain,150,2012-12-10 12:00:00
3:00 PM,71.6,66.2,83,29.92,6.2,East,8.1,-,N/A,,Mostly Cloudy,90,2012-12-10 13:00:00
4:00 PM,71.6,66.2,83,29.86,6.2,ENE,11.5,-,N/A,,Mostly Cloudy,60,2012-12-10 14:00:00
5:00 PM,71.6,66.2,83,29.86,6.2,East,6.9,-,N/A,,Mostly Cloudy,100,2012-12-10 15:00:00
6:00 PM,71.6,66.2,83,29.89,6.2,ENE,4.6,-,N/A,,Mostly Cloudy,70,2012-12-10 16:00:00
7:00 PM,71.6,68.0,88,29.89,-9999.0,Variable,2.3,-,N/A,,Clear,0,2012-12-10 17:00:00
8:00 PM,71,67,82,,6,ESE,3.5,,,,Mostly Cloudy,110,2012-12-10 18:00:00
8:00 PM,71.6,66.2,83,29.92,-9999.0,East,3.5,-,N/A,,Clear,100,2012-12-10 18:00:00
9:00 PM,69.8,68.0,94,29.92,-9999.0,SE,3.5,-,N/A,,Clear,130,2012-12-10 19:00:00
10:00 PM,69.8,68.0,94,29.92,-9999.0,NNE,5.8,-,N/A,,Clear,20,2012-12-10 20:00:00
11:00 PM,69.8,66.2,88,29.92,-9999.0,East,6.9,-,N/A,,Clear,90,2012-12-10 21:00:00